• In Belgien
  • Länderverzeichnis
  • Für 7 Tage
  • Wassertemperatur
  • Satellitenkarten
  • Wetterkarte
  • Widgets
  • user-avatar
    Anmelden

    Stündliche Wetter Siemierz

    Heute, 22 September, Samstag

    Zeit Temperatur Niederschläge Wind Luftdruck Luftfeuchtigkeit
    00:00 +18°C° 0 mm 4 m/S 739 mmHg 70%
    01:00 +18°C° 0 mm 4 m/S 739 mmHg 70%
    02:00 +17°C° 0 mm 3 m/S 739 mmHg 71%
    03:00 +17°C° 0 mm 3 m/S 739 mmHg 70%
    04:00 +17°C° 0 mm 3 m/S 739 mmHg 68%
    05:00 +17°C° 0 mm 4 m/S 739 mmHg 67%
    06:00 +16°C° 0.2 mm 5 m/S 740 mmHg 71%
    07:00 +16°C° 0.2 mm 6 m/S 741 mmHg 75%
    08:00 +16°C° 0.2 mm 7 m/S 742 mmHg 79%
    09:00 +15°C° 0.5 mm 6 m/S 742 mmHg 81%
    10:00 +14°C° 0.5 mm 5 m/S 743 mmHg 83%
    11:00 +13°C° 0.5 mm 4 m/S 744 mmHg 85%
    12:00 +12°C° 0.6 mm 4 m/S 744 mmHg 84%
    13:00 +12°C° 0.6 mm 4 m/S 744 mmHg 84%
    14:00 +12°C° 0.6 mm 3 m/S 744 mmHg 84%
    15:00 +12°C° 0.2 mm 3 m/S 744 mmHg 82%
    16:00 +13°C° 0.2 mm 3 m/S 744 mmHg 80%
    17:00 +13°C° 0.2 mm 4 m/S 744 mmHg 78%
    18:00 +12°C° 0 mm 3 m/S 744 mmHg 80%
    19:00 +11°C° 0 mm 3 m/S 744 mmHg 83%
    20:00 +10°C° 0 mm 3 m/S 744 mmHg 86%
    21:00 +10°C° 0 mm 3 m/S 744 mmHg 85%
    22:00 +9°C° 0 mm 3 m/S 744 mmHg 84%
    23:00 +9°C° 0 mm 3 m/S 744 mmHg 84%

    Morgen, 23 September, Sonntag

    Zeit Temperatur Niederschläge Wind Luftdruck Luftfeuchtigkeit
    00:00 +9°C° 0 mm 3 m/S 744 mmHg 83%
    01:00 +9°C° 0 mm 3 m/S 744 mmHg 83%
    02:00 +9°C° 0 mm 3 m/S 744 mmHg 83%
    03:00 +9°C° 0 mm 3 m/S 744 mmHg 83%
    04:00 +9°C° 0 mm 3 m/S 744 mmHg 82%
    05:00 +9°C° 0 mm 3 m/S 744 mmHg 82%
    06:00 +10°C° 0 mm 3 m/S 744 mmHg 79%
    07:00 +10°C° 0 mm 4 m/S 744 mmHg 77%
    08:00 +11°C° 0 mm 4 m/S 743 mmHg 75%
    09:00 +13°C° 0 mm 4 m/S 743 mmHg 68%
    10:00 +14°C° 0 mm 5 m/S 743 mmHg 62%
    11:00 +16°C° 0 mm 5 m/S 744 mmHg 55%
    12:00 +16°C° 0.1 mm 5 m/S 743 mmHg 55%
    13:00 +16°C° 0.1 mm 5 m/S 743 mmHg 54%
    14:00 +17°C° 0.1 mm 5 m/S 742 mmHg 54%
    15:00 +17°C° 0 mm 4 m/S 742 mmHg 57%
    16:00 +17°C° 0 mm 3 m/S 742 mmHg 61%
    17:00 +16°C° 0 mm 3 m/S 741 mmHg 65%
    18:00 +16°C° 0.1 mm 2 m/S 741 mmHg 68%
    19:00 +15°C° 0.1 mm 2 m/S 740 mmHg 72%
    20:00 +14°C° 0.1 mm 2 m/S 740 mmHg 75%
    21:00 +13°C° 0.3 mm 3 m/S 739 mmHg 78%
    22:00 +13°C° 0.3 mm 3 m/S 738 mmHg 81%
    23:00 +12°C° 0.3 mm 4 m/S 736 mmHg 83%

    übermorgen, 24 September, Montag

    Zeit Temperatur Niederschläge Wind Luftdruck Luftfeuchtigkeit
    00:00 +13°C° 0.2 mm 5 m/S 735 mmHg 80%
    01:00 +14°C° 0.2 mm 7 m/S 733 mmHg 76%
    02:00 +13°C° 0.2 mm 9 m/S 732 mmHg 73%
    03:00 +15°C° 1.2 mm 9 m/S 731 mmHg 77%
    04:00 +14°C° 1.2 mm 10 m/S 730 mmHg 81%
    05:00 +16°C° 1.2 mm 10 m/S 729 mmHg 84%
    06:00 +13°C° 0.3 mm 11 m/S 730 mmHg 83%
    07:00 +12°C° 0.3 mm 12 m/S 731 mmHg 81%
    08:00 +9°C° 0.3 mm 12 m/S 732 mmHg 80%
    09:00 +9°C° 0.1 mm 11 m/S 734 mmHg 77%
    10:00 +9°C° 0.1 mm 10 m/S 736 mmHg 75%
    11:00 +10°C° 0.1 mm 9 m/S 738 mmHg 72%
    12:00 +10°C° 0.3 mm 9 m/S 739 mmHg 72%
    13:00 +10°C° 0.3 mm 9 m/S 740 mmHg 72%
    14:00 +11°C° 0.3 mm 9 m/S 740 mmHg 71%
    15:00 +10°C° 0.2 mm 9 m/S 741 mmHg 69%
    16:00 +10°C° 0.2 mm 9 m/S 741 mmHg 67%
    17:00 +10°C° 0.2 mm 8 m/S 742 mmHg 65%
    18:00 +9°C° 0 mm 8 m/S 742 mmHg 66%
    19:00 +8°C° 0 mm 7 m/S 742 mmHg 67%
    20:00 +8°C° 0 mm 7 m/S 743 mmHg 68%
    21:00 +6°C° 0 mm 7 m/S 743 mmHg 71%
    22:00 +6°C° 0 mm 7 m/S 744 mmHg 74%
    23:00 +6°C° 0 mm 7 m/S 744 mmHg 77%

    25 September, Dienstag

    Zeit Temperatur Niederschläge Wind Luftdruck Luftfeuchtigkeit
    00:00 +6°C° 0.1 mm 7 m/S 745 mmHg 75%
    01:00 +6°C° 0.1 mm 7 m/S 746 mmHg 74%
    02:00 +6°C° 0.1 mm 7 m/S 746 mmHg 73%
    03:00 +5°C° 0 mm 7 m/S 747 mmHg 74%
    04:00 +4°C° 0 mm 6 m/S 748 mmHg 75%
    05:00 +4°C° 0 mm 6 m/S 748 mmHg 76%
    06:00 +4°C° 0 mm 6 m/S 749 mmHg 73%
    07:00 +5°C° 0 mm 7 m/S 749 mmHg 71%
    08:00 +5°C° 0 mm 7 m/S 750 mmHg 69%
    09:00 +6°C° 0 mm 7 m/S 750 mmHg 64%
    10:00 +7°C° 0 mm 8 m/S 751 mmHg 58%
    11:00 +9°C° 0 mm 8 m/S 751 mmHg 53%
    12:00 +10°C° 0.2 mm 8 m/S 752 mmHg 52%
    13:00 +10°C° 0.2 mm 8 m/S 752 mmHg 51%
    14:00 +10°C° 0.2 mm 8 m/S 752 mmHg 51%
    15:00 +10°C° 0.1 mm 7 m/S 752 mmHg 52%
    16:00 +10°C° 0.1 mm 7 m/S 753 mmHg 54%
    17:00 +9°C° 0.1 mm 6 m/S 753 mmHg 56%
    18:00 +8°C° 0 mm 6 m/S 754 mmHg 58%
    19:00 +7°C° 0 mm 5 m/S 754 mmHg 60%
    20:00 +6°C° 0 mm 4 m/S 755 mmHg 62%
    21:00 +6°C° 0 mm 4 m/S 755 mmHg 63%
    22:00 +5°C° 0 mm 4 m/S 755 mmHg 65%
    23:00 +5°C° 0 mm 3 m/S 756 mmHg 67%

    26 September, Mittwoch

    Zeit Temperatur Niederschläge Wind Luftdruck Luftfeuchtigkeit
    00:00 +4°C° 0 mm 3 m/S 756 mmHg 68%
    01:00 +4°C° 0 mm 3 m/S 756 mmHg 69%
    02:00 +4°C° 0 mm 3 m/S 756 mmHg 70%
    03:00 +4°C° 0 mm 3 m/S 756 mmHg 71%
    04:00 +3°C° 0 mm 3 m/S 756 mmHg 71%
    05:00 +3°C° 0 mm 3 m/S 756 mmHg 72%
    06:00 +4°C° 0 mm 4 m/S 756 mmHg 70%
    07:00 +5°C° 0 mm 4 m/S 756 mmHg 69%
    08:00 +5°C° 0 mm 5 m/S 756 mmHg 67%
    09:00 +7°C° 0 mm 5 m/S 756 mmHg 61%
    10:00 +9°C° 0 mm 5 m/S 756 mmHg 55%
    11:00 +11°C° 0 mm 6 m/S 756 mmHg 49%
    12:00 +11°C° 0 mm 6 m/S 755 mmHg 48%
    13:00 +13°C° 0 mm 6 m/S 754 mmHg 46%
    14:00 +13°C° 0 mm 6 m/S 754 mmHg 44%
    15:00 +13°C° 0 mm 5 m/S 753 mmHg 46%
    16:00 +12°C° 0 mm 5 m/S 752 mmHg 48%
    17:00 +12°C° 0 mm 4 m/S 752 mmHg 50%
    18:00 +12°C° 0 mm 4 m/S 752 mmHg 50%
    19:00 +11°C° 0 mm 4 m/S 751 mmHg 51%
    20:00 +10°C° 0 mm 4 m/S 751 mmHg 51%
    21:00 +10°C° 0 mm 4 m/S 751 mmHg 51%
    22:00 +9°C° 0 mm 5 m/S 751 mmHg 51%
    23:00 +9°C° 0 mm 5 m/S 751 mmHg 51%

    27 September, Donnerstag

    Zeit Temperatur Niederschläge Wind Luftdruck Luftfeuchtigkeit
    00:00 +9°C° 0 mm 5 m/S 750 mmHg 52%
    01:00 +9°C° 0 mm 5 m/S 750 mmHg 52%
    02:00 +9°C° 0 mm 6 m/S 750 mmHg 52%
    03:00 +9°C° 0 mm 6 m/S 749 mmHg 53%
    04:00 +8°C° 0 mm 6 m/S 749 mmHg 53%
    05:00 +8°C° 0 mm 6 m/S 748 mmHg 53%
    06:00 +8°C° 0 mm 6 m/S 748 mmHg 54%
    07:00 +8°C° 0 mm 6 m/S 748 mmHg 54%
    08:00 +8°C° 0 mm 6 m/S 748 mmHg 54%
    09:00 +10°C° 0 mm 7 m/S 747 mmHg 51%
    10:00 +12°C° 0 mm 7 m/S 747 mmHg 48%
    11:00 +15°C° 0 mm 7 m/S 747 mmHg 45%
    12:00 +16°C° 0 mm 7 m/S 746 mmHg 44%
    13:00 +16°C° 0 mm 7 m/S 746 mmHg 42%
    14:00 +17°C° 0 mm 7 m/S 745 mmHg 41%
    15:00 +17°C° 0 mm 6 m/S 745 mmHg 44%
    16:00 +17°C° 0 mm 6 m/S 744 mmHg 46%
    17:00 +16°C° 0 mm 5 m/S 743 mmHg 49%
    18:00 +15°C° 0 mm 6 m/S 743 mmHg 49%
    19:00 +14°C° 0 mm 6 m/S 743 mmHg 49%
    20:00 +13°C° 0 mm 6 m/S 743 mmHg 50%
    21:00 +13°C° 0 mm 6 m/S 743 mmHg 50%
    22:00 +13°C° 0 mm 6 m/S 742 mmHg 50%
    23:00 +11°C° 0 mm 6 m/S 742 mmHg 51%
    Mehr zeigen